This is the latest recevied weather packets stored in our database for station/object HS5BOG-13. If no packets are shown the sender has not sent any weather packets the latest 10 day(s).
| Time | Temp. | Humidity | Pressure | Rain* | Wind** | Luminosity | Snow |
|---|---|---|---|---|---|---|---|
| 1778084066 | 31.67° C | 64% | 990.8 hPa | - | - | - | - |
| 1778083460 | 31.67° C | 65% | 990.9 hPa | - | - | - | - |
| 1778082855 | 31.67° C | 64% | 990.9 hPa | - | - | - | - |
| 1778082249 | 31.67° C | 67% | 990.8 hPa | - | - | - | - |
| 1778081644 | 31.67° C | 66% | 990.8 hPa | - | - | - | - |
| 1778081038 | 32.22° C | 64% | 990.6 hPa | - | - | - | - |
| 1778080433 | 32.22° C | 64% | 990.6 hPa | - | - | - | - |
| 1778079827 | 32.22° C | 62% | 990.2 hPa | - | - | - | - |
| 1778079222 | 32.22° C | 62% | 990 hPa | - | - | - | - |
| 1778078616 | 32.22° C | 63% | 989.9 hPa | - | - | - | - |
| 1778078011 | 32.22° C | 63% | 989.6 hPa | - | - | - | - |
| 1778077405 | 32.22° C | 63% | 989.5 hPa | - | - | - | - |
| 1778076800 | 32.22° C | 63% | 989.5 hPa | - | - | - | - |
| 1778076194 | 32.22° C | 63% | 989.3 hPa | - | - | - | - |
| 1778075588 | 32.22° C | 62% | 989.2 hPa | - | - | - | - |
| 1778074983 | 32.78° C | 61% | 989.1 hPa | - | - | - | - |
| 1778074377 | 32.78° C | 62% | 989 hPa | - | - | - | - |
| 1778073772 | 32.78° C | 66% | 988.7 hPa | - | - | - | - |
| 1778073166 | 32.78° C | 67% | 988.5 hPa | - | - | - | - |
| 1778072561 | 32.78° C | 67% | 988.5 hPa | - | - | - | - |
| 1778071955 | 32.78° C | 64% | 988.5 hPa | - | - | - | - |
| 1778071350 | 32.78° C | 64% | 988.3 hPa | - | - | - | - |
| 1778070744 | 32.78° C | 65% | 988.3 hPa | - | - | - | - |
| 1778070138 | 32.78° C | 63% | 988.2 hPa | - | - | - | - |
| 1778069552 | 32.78° C | 63% | 988.1 hPa | - | - | - | - |
* Rain since midnight (hover to see other rain measurements)
** Current wind speed in m/s (hover to see current wind gust speed)